Regional Weather Roundup
Issued by NWS

Home | Current Version | Previous Version | Graphics & Text | Print | Product List | Glossary On
Versions: 1 2 3 4 5 6 7 8 9 10 11 12 13 14 15 16 17 18 19 20 21 22 23 24 25 26 27 28 29 30 31 32 33 34 35 36 37 38 39 40 41 42 43 44 45 46 47 48 49 50
948
ASUS43 KLMK 260310
RWRKY
KENTUCKY REGIONAL WEATHER ROUNDUP
NATIONAL WEATHER SERVICE LOUISVILLE KY
1100 PM EDT FRI MAY 25 2018

NOTE "FAIR" INDICATES FEW OR NO CLOUDS BELOW 12,000 FEET
WITH NO SIGNIFICANT WEATHER AND/OR OBSTRUCTIONS TO VISIBILITY.

KYZ001>023-026-027-061>063-070>075-260400-
WESTERN AND SOUTH CENTRAL KENTUCKY

CITY           SKY/WX    TMP DP  RH WIND       PRES   REMARKS
PADUCAH        FAIR      70  67  90 SE3       29.86F
HENDERSON      NOT AVBL
OWENSBORO      FAIR      73  68  84 W5        29.89R
HOPKINSVILLE   FAIR      72  70  93 S6        29.90R
BOWLING GREEN  FAIR      77  70  79 S9        29.89F
GLASGOW        FAIR      74  65  74 W3        29.91S
$$

KYZ024-025-028>034-038-045-046-053-260400-
NORTH CENTRAL KENTUCKY

CITY           SKY/WX    TMP DP  RH WIND       PRES   REMARKS
LOUISVILLE/SDF CLOUDY    80  60  50 S6        29.87S
LOUISVILLE/LOU FAIR      78  62  57 S6        29.88S
FORT KNOX      FAIR      73  63  68 CALM      29.88F
$$

KYZ035>037-039>044-047>052-055>060-089>105-260400-
NORTHEAST KENTUCKY

CITY           SKY/WX    TMP DP  RH WIND       PRES   REMARKS
LEXINGTON      FAIR      75  64  68 S5        29.92R
COVINGTON      MOCLDY    72  59  63 S5        29.88R
FRANKFORT      FAIR      72  64  76 SW3       29.89R
$$

KYZ054-064>069-076>088-106>120-260400-
SOUTHEAST KENTUCKY

CITY           SKY/WX    TMP DP  RH WIND       PRES   REMARKS
JACKSON        FAIR      73  67  81 S3        29.95R
LONDON         FAIR      74  65  73 CALM      29.95R
SOMERSET       FAIR      70  64  83 MISG      29.94S
MIDDLESBORO    FAIR      72  68  88 CALM      29.98R
MONTICELLO     FAIR      71  66  84 NE8       29.95R
$$





USA.gov is the U.S. government's official web portal to all federal, state and local government web resources and services.